TimeEST,TemperatureF,Dew PointF,Humidity,Sea Level PressureIn,VisibilityMPH,Wind Direction,Wind SpeedMPH,Gust SpeedMPH,PrecipitationIn,Events,Conditions,WindDirDegrees,DateUTC
12:15 AM,23.7,6.4,48,30.49,10.0,Calm,Calm,-,N/A,,Clear,0,2013-01-25 05:15:00
12:35 AM,21.9,9.0,58,30.51,10.0,Calm,Calm,-,N/A,,Clear,0,2013-01-25 05:35:00
12:55 AM,19.9,10.0,65,30.51,10.0,Calm,Calm,-,N/A,,Clear,0,2013-01-25 05:55:00
1:15 AM,19.4,10.4,68,30.51,10.0,Calm,Calm,-,N/A,,Clear,0,2013-01-25 06:15:00
1:35 AM,18.5,10.2,70,30.51,10.0,Calm,Calm,-,N/A,,Clear,0,2013-01-25 06:35:00
1:55 AM,18.3,10.8,72,30.52,10.0,Calm,Calm,-,N/A,,Clear,0,2013-01-25 06:55:00
2:15 AM,18.3,10.6,72,30.51,10.0,Calm,Calm,-,N/A,,Clear,0,2013-01-25 07:15:00
2:35 AM,17.4,10.9,76,30.51,10.0,Calm,Calm,-,N/A,,Clear,0,2013-01-25 07:35:00
2:55 AM,17.8,11.7,77,30.49,10.0,Calm,Calm,-,N/A,,Clear,0,2013-01-25 07:55:00
3:15 AM,17.6,11.5,77,30.47,10.0,Calm,Calm,-,N/A,,Clear,0,2013-01-25 08:15:00
3:35 AM,18.3,11.7,75,30.48,10.0,Calm,Calm,-,N/A,,Clear,0,2013-01-25 08:35:00
3:55 AM,19.2,12.0,74,30.47,10.0,Calm,Calm,-,N/A,,Clear,0,2013-01-25 08:55:00
4:15 AM,17.6,12.2,79,30.48,10.0,Calm,Calm,-,N/A,,Clear,0,2013-01-25 09:15:00
4:35 AM,16.7,12.4,83,30.46,10.0,Calm,Calm,-,N/A,,Clear,0,2013-01-25 09:35:00
4:55 AM,16.9,12.6,83,30.46,10.0,Calm,Calm,-,N/A,,Clear,0,2013-01-25 09:55:00
5:15 AM,17.4,13.1,83,30.46,10.0,Calm,Calm,-,N/A,,Scattered Clouds,0,2013-01-25 10:15:00
5:35 AM,20.3,14.7,79,30.45,10.0,Calm,Calm,-,N/A,,Mostly Cloudy,0,2013-01-25 10:35:00
5:55 AM,22.3,13.1,68,30.44,10.0,Calm,Calm,-,N/A,,Overcast,0,2013-01-25 10:55:00
6:15 AM,23.7,10.0,56,30.43,10.0,ESE,4.6,-,N/A,,Overcast,110,2013-01-25 11:15:00
6:35 AM,23.9,9.1,53,30.43,10.0,Calm,Calm,-,N/A,,Overcast,0,2013-01-25 11:35:00
6:55 AM,23.9,10.4,56,30.43,10.0,Calm,Calm,-,N/A,,Overcast,0,2013-01-25 11:55:00
7:15 AM,23.9,10.2,56,30.44,10.0,Calm,Calm,-,N/A,,Overcast,0,2013-01-25 12:15:00
7:35 AM,23.9,12.4,62,30.43,10.0,Calm,Calm,-,N/A,,Overcast,0,2013-01-25 12:35:00
7:55 AM,24.3,12.2,60,30.43,10.0,Calm,Calm,-,N/A,,Overcast,0,2013-01-25 12:55:00
8:35 AM,24.4,11.8,59,30.42,10.0,SSE,4.6,-,N/A,,Overcast,150,2013-01-25 13:35:00
8:55 AM,24.6,9.9,54,30.41,10.0,SSE,3.5,-,N/A,,Overcast,150,2013-01-25 13:55:00
9:15 AM,24.8,10.8,55,30.41,10.0,SE,3.5,-,N/A,,Overcast,140,2013-01-25 14:15:00
9:35 AM,24.8,11.3,57,30.40,10.0,SE,3.5,-,N/A,,Overcast,140,2013-01-25 14:35:00
9:55 AM,24.8,14.2,64,30.40,10.0,Calm,Calm,-,N/A,,Overcast,0,2013-01-25 14:55:00
10:15 AM,24.8,14.4,65,30.41,10.0,Calm,Calm,-,N/A,,Overcast,0,2013-01-25 15:15:00
10:35 AM,25.2,16.2,69,30.39,5.0,SSW,3.5,-,N/A,,Overcast,210,2013-01-25 15:35:00
10:55 AM,24.8,14.7,66,30.39,10.0,Calm,Calm,-,N/A,,Overcast,0,2013-01-25 15:55:00
11:15 AM,25.5,16.5,69,30.36,10.0,SSW,3.5,-,N/A,,Overcast,200,2013-01-25 16:15:00
11:35 AM,25.7,14.7,63,30.34,10.0,South,5.8,-,N/A,,Overcast,180,2013-01-25 16:35:00
11:55 AM,25.5,12.7,58,30.31,10.0,South,5.8,-,N/A,,Overcast,170,2013-01-25 16:55:00
12:15 PM,25.2,13.1,60,30.31,10.0,SSW,4.6,-,N/A,,Overcast,210,2013-01-25 17:15:00
12:35 PM,25.2,14.0,63,30.29,5.0,South,5.8,-,N/A,,Overcast,190,2013-01-25 17:35:00
12:55 PM,24.4,18.1,77,30.28,1.8,South,3.5,-,0.04,Snow,Light Snow,180,2013-01-25 17:55:00
1:15 PM,23.9,19.0,82,30.26,2.5,South,5.8,-,0.03,Snow,Light Snow,170,2013-01-25 18:15:00
1:35 PM,24.4,20.3,84,30.24,2.0,SSE,4.6,-,0.05,Snow,Light Snow,150,2013-01-25 18:35:00
1:55 PM,24.6,20.7,85,30.23,3.0,SSE,3.5,-,0.06,Snow,Light Snow,160,2013-01-25 18:55:00
2:15 PM,24.8,20.8,85,30.21,3.0,Calm,Calm,-,0.01,Snow,Light Snow,0,2013-01-25 19:15:00
2:35 PM,25.2,21.0,84,30.19,10.0,South,3.5,-,0.01,,Overcast,190,2013-01-25 19:35:00
2:55 PM,25.3,21.4,85,30.17,10.0,Calm,Calm,-,0.01,,Overcast,0,2013-01-25 19:55:00
3:15 PM,25.3,21.9,87,30.17,10.0,Calm,Calm,-,N/A,,Overcast,0,2013-01-25 20:15:00
3:35 PM,25.7,21.9,86,30.16,10.0,Calm,Calm,-,N/A,,Overcast,0,2013-01-25 20:35:00
3:55 PM,25.7,22.5,88,30.14,10.0,Calm,Calm,-,N/A,,Overcast,0,2013-01-25 20:55:00
4:15 PM,25.7,23.0,89,30.15,10.0,Calm,Calm,-,N/A,,Overcast,0,2013-01-25 21:15:00
4:35 PM,26.2,23.5,90,30.14,10.0,South,3.5,-,N/A,,Overcast,190,2013-01-25 21:35:00
4:55 PM,26.4,23.9,90,30.14,10.0,WSW,3.5,-,N/A,,Overcast,240,2013-01-25 21:55:00
5:15 PM,26.6,23.9,90,30.13,10.0,Calm,Calm,-,N/A,,Overcast,0,2013-01-25 22:15:00
5:35 PM,26.6,24.6,92,30.13,10.0,SW,3.5,-,N/A,,Overcast,220,2013-01-25 22:35:00
5:55 PM,26.6,24.4,92,30.13,10.0,SW,3.5,-,N/A,,Overcast,220,2013-01-25 22:55:00
6:15 PM,27.0,24.6,91,30.14,10.0,Calm,Calm,-,N/A,,Overcast,0,2013-01-25 23:15:00
6:35 PM,26.6,24.8,93,30.14,10.0,SW,3.5,-,N/A,,Overcast,220,2013-01-25 23:35:00
6:55 PM,26.8,24.8,92,30.14,10.0,SW,4.6,-,N/A,,Overcast,230,2013-01-25 23:55:00
7:15 PM,27.0,25.2,93,30.13,10.0,Calm,Calm,-,N/A,,Overcast,0,2013-01-26 00:15:00
7:35 PM,26.6,25.3,95,30.13,7.0,Calm,Calm,-,N/A,,Overcast,0,2013-01-26 00:35:00
7:55 PM,27.0,25.5,94,30.13,7.0,Calm,Calm,-,N/A,,Overcast,0,2013-01-26 00:55:00
8:15 PM,27.1,25.7,94,30.13,7.0,Calm,Calm,-,N/A,,Overcast,0,2013-01-26 01:15:00
8:35 PM,27.0,25.7,95,30.13,7.0,Calm,Calm,-,N/A,,Overcast,0,2013-01-26 01:35:00
8:55 PM,27.0,25.7,95,30.12,7.0,Calm,Calm,-,N/A,,Overcast,0,2013-01-26 01:55:00
9:15 PM,27.0,25.7,95,30.12,7.0,Calm,Calm,-,N/A,,Overcast,0,2013-01-26 02:15:00
9:35 PM,27.0,25.9,96,30.12,7.0,Calm,Calm,-,N/A,,Overcast,0,2013-01-26 02:35:00
9:55 PM,27.1,26.1,96,30.12,7.0,Calm,Calm,-,N/A,,Overcast,0,2013-01-26 02:55:00
10:15 PM,27.1,25.7,94,30.12,7.0,Calm,Calm,-,N/A,,Overcast,0,2013-01-26 03:15:00
10:35 PM,27.3,26.2,96,30.12,5.0,SW,3.5,-,N/A,,Overcast,220,2013-01-26 03:35:00
10:55 PM,27.0,26.2,97,30.12,4.0,WSW,4.6,-,N/A,,Overcast,240,2013-01-26 03:55:00
11:15 PM,27.0,26.4,98,30.12,3.0,West,3.5,-,N/A,,Overcast,260,2013-01-26 04:15:00
11:35 PM,26.6,26.1,98,30.12,2.0,Calm,Calm,-,N/A,,Overcast,0,2013-01-26 04:35:00
11:55 PM,26.6,26.2,99,30.12,2.0,Calm,Calm,-,N/A,,Overcast,0,2013-01-26 04:55:00